KLM27E EHAM-LSGG

Flight info

Callsign KLM27E
Flight time 1h 16m
Altitude 35000
Route EDUPO Z739 MISGO DCT ASBON DCT TUSUK DCT KRH/N0446F340 DCT NATOR/N0448F350 DCT LUTIX DCT BENOT
Aircraft A321/M-SDE3FGHIRWY/LB1

Departure

Time 2026-05-05 07:47
Airport Amsterdam Airport Schiphol (EHAM)

Arrival

Time 2026-05-05 09:04
Airport Geneva International Airport (LSGG)
Time Latitude Longitude Altitude Speed Heading
2026-05-05 07:05 52.30624 4.76630 -2 ft 0 kts 238°
2026-05-05 07:33 52.30626 4.76633 -3 ft 1 kts 238°
2026-05-05 07:33 52.30635 4.76658 -3 ft 3 kts 238°
2026-05-05 07:33 52.30645 4.76684 -2 ft 3 kts 249°
2026-05-05 07:33 52.30649 4.76715 -3 ft 3 kts 276°
2026-05-05 07:34 52.30645 4.76746 -3 ft 3 kts 295°
2026-05-05 07:34 52.30635 4.76775 -3 ft 3 kts 305°
2026-05-05 07:34 52.30624 4.76799 -3 ft 2 kts 304°
2026-05-05 07:34 52.30623 4.76802 -3 ft 0 kts 303°
2026-05-05 07:36 52.30639 4.76771 -3 ft 7 kts 321°
2026-05-05 07:37 52.30679 4.76736 -2 ft 6 kts 352°
2026-05-05 07:37 52.30714 4.76766 -2 ft 7 kts 63°
2026-05-05 07:37 52.30702 4.76834 -2 ft 6 kts 143°
2026-05-05 07:37 52.30674 4.76867 -2 ft 4 kts 133°
2026-05-05 07:38 52.30665 4.76901 -2 ft 3 kts 110°
2026-05-05 07:38 52.30661 4.76921 -2 ft 1 kts 109°
2026-05-05 07:38 52.30656 4.76943 -2 ft 4 kts 109°
2026-05-05 07:38 52.30646 4.76977 -2 ft 3 kts 118°
2026-05-05 07:39 52.30638 4.76992 -2 ft 1 kts 137°
2026-05-05 07:39 52.30631 4.77002 -2 ft 3 kts 142°
2026-05-05 07:39 52.30606 4.77026 -3 ft 9 kts 149°
2026-05-05 07:39 52.30544 4.77079 -3 ft 9 kts 166°
2026-05-05 07:40 52.30496 4.77038 -3 ft 7 kts 230°
2026-05-05 07:40 52.30469 4.76974 -3 ft 6 kts 236°
2026-05-05 07:40 52.30440 4.76903 -3 ft 10 kts 237°
2026-05-05 07:40 52.30394 4.76780 -3 ft 15 kts 238°
2026-05-05 07:41 52.30330 4.76616 -2 ft 17 kts 237°
2026-05-05 07:41 52.30265 4.76445 -2 ft 19 kts 239°
2026-05-05 07:41 52.30195 4.76256 -2 ft 20 kts 237°
2026-05-05 07:41 52.30126 4.76074 -3 ft 18 kts 239°
2026-05-05 07:42 52.30062 4.75904 -3 ft 17 kts 238°
2026-05-05 07:42 52.30001 4.75753 -3 ft 15 kts 237°
2026-05-05 07:42 52.29944 4.75608 -3 ft 15 kts 238°
2026-05-05 07:42 52.29894 4.75475 -2 ft 13 kts 238°
2026-05-05 07:43 52.29850 4.75358 -2 ft 11 kts 239°
2026-05-05 07:43 52.29837 4.75240 -2 ft 11 kts 279°
2026-05-05 07:43 52.29880 4.75121 -3 ft 15 kts 310°
2026-05-05 07:43 52.29958 4.74977 -3 ft 19 kts 310°
2026-05-05 07:44 52.30057 4.74790 -3 ft 24 kts 311°
2026-05-05 07:44 52.30170 4.74586 -3 ft 24 kts 312°
2026-05-05 07:44 52.30272 4.74399 -2 ft 19 kts 311°
2026-05-05 07:44 52.30356 4.74240 -3 ft 16 kts 311°
2026-05-05 07:45 52.30414 4.74127 -2 ft 13 kts 304°
2026-05-05 07:45 52.30416 4.74001 -3 ft 11 kts 256°
2026-05-05 07:45 52.30409 4.73884 -5 ft 11 kts 273°
2026-05-05 07:45 52.30419 4.73765 -5 ft 9 kts 307°
2026-05-05 07:46 52.30447 4.73757 -5 ft 0 kts
2026-05-05 07:46 52.30449 4.73757 -5 ft 2 kts
2026-05-05 07:47 52.30556 4.73768 -6 ft 45 kts
2026-05-05 07:47 52.31087 4.73819 0 ft 105 kts
2026-05-05 07:47 52.31986 4.73909 5 ft 151 kts
2026-05-05 07:47 52.33031 4.73996 594 ft 147 kts
2026-05-05 07:48 52.34018 4.74416 1197 ft 149 kts 24°
2026-05-05 07:48 52.35013 4.75109 1560 ft 164 kts 25°
2026-05-05 07:48 52.36117 4.75862 1846 ft 180 kts 24°
2026-05-05 07:48 52.37349 4.76699 2013 ft 206 kts 24°
2026-05-05 07:49 52.38605 4.77994 2403 ft 223 kts 46°
2026-05-05 07:49 52.39690 4.79980 2765 ft 243 kts 47°
2026-05-05 07:49 52.40846 4.82061 3452 ft 250 kts 46°
2026-05-05 07:49 52.41861 4.84412 4143 ft 259 kts 62°
2026-05-05 07:50 52.42378 4.87278 4831 ft 268 kts 82°
2026-05-05 07:50 52.42320 4.90364 5516 ft 275 kts 95°
2026-05-05 07:50 52.42182 4.93486 6336 ft 275 kts 92°
2026-05-05 07:50 52.42111 4.96644 7084 ft 277 kts 96°
2026-05-05 07:51 52.41619 4.99653 7818 ft 276 kts 119°
2026-05-05 07:51 52.40349 5.01961 8516 ft 277 kts 148°
2026-05-05 07:51 52.38621 5.03460 9038 ft 286 kts 153°
2026-05-05 07:51 52.36885 5.05127 9652 ft 292 kts 148°
2026-05-05 07:52 52.35182 5.07006 10193 ft 300 kts 146°
2026-05-05 07:52 52.33468 5.09173 10334 ft 323 kts 137°
2026-05-05 07:52 52.31903 5.11984 10475 ft 344 kts 130°
2026-05-05 07:52 52.30319 5.14995 10942 ft 352 kts 131°
2026-05-05 07:53 52.28687 5.18012 11530 ft 357 kts 133°
2026-05-05 07:53 52.27019 5.21040 12189 ft 360 kts 133°
2026-05-05 07:53 52.25327 5.24080 12801 ft 363 kts 133°
2026-05-05 07:53 52.23719 5.27280 13427 ft 367 kts 126°
2026-05-05 07:54 52.22227 5.30697 13980 ft 371 kts 126°
2026-05-05 07:54 52.20726 5.34156 14505 ft 376 kts 126°
2026-05-05 07:54 52.19209 5.37661 15031 ft 380 kts 126°
2026-05-05 07:54 52.17685 5.41181 15640 ft 382 kts 126°
2026-05-05 07:55 52.16147 5.44721 16222 ft 383 kts 126°
2026-05-05 07:55 52.14604 5.48261 16838 ft 384 kts 126°
2026-05-05 07:55 52.13051 5.51813 17396 ft 387 kts 126°
2026-05-05 07:55 52.11484 5.55387 17903 ft 390 kts 126°
2026-05-05 07:56 52.09903 5.58997 18400 ft 394 kts 126°
2026-05-05 07:56 52.08309 5.62633 18855 ft 396 kts 126°
2026-05-05 07:56 52.06701 5.66291 19277 ft 399 kts 127°
2026-05-05 07:56 52.04954 5.69794 19750 ft 400 kts 132°
2026-05-05 07:57 52.03121 5.73212 20172 ft 403 kts 133°
2026-05-05 07:57 52.01274 5.76655 20608 ft 406 kts 133°
2026-05-05 07:57 51.99414 5.80118 21049 ft 408 kts 133°
2026-05-05 07:57 51.97540 5.83604 21486 ft 411 kts 133°
2026-05-05 07:58 51.95658 5.87106 21935 ft 413 kts 133°
2026-05-05 07:58 51.93769 5.90635 22343 ft 416 kts 133°
2026-05-05 07:58 51.91865 5.94194 22758 ft 419 kts 133°
2026-05-05 07:58 51.89950 5.97771 23158 ft 422 kts 133°
2026-05-05 07:59 51.88017 6.01368 23519 ft 425 kts 133°
2026-05-05 07:59 51.86068 6.04981 23842 ft 428 kts 133°
2026-05-05 07:59 51.84102 6.08619 24179 ft 430 kts 134°
2026-05-05 07:59 51.82127 6.12252 24526 ft 432 kts 134°
2026-05-05 08:00 51.80132 6.15909 24869 ft 434 kts 134°
2026-05-05 08:00 51.78157 6.19521 25201 ft 436 kts 134°
2026-05-05 08:00 51.76119 6.23246 25547 ft 438 kts 134°
2026-05-05 08:00 51.74126 6.26893 25865 ft 440 kts 135°
2026-05-05 08:01 51.72098 6.30596 26208 ft 442 kts 135°
2026-05-05 08:01 51.70054 6.34316 26501 ft 445 kts 135°
2026-05-05 08:01 51.67993 6.38053 26811 ft 447 kts 135°
2026-05-05 08:01 51.65920 6.41807 27143 ft 449 kts 135°
2026-05-05 08:02 51.63845 6.45567 27446 ft 451 kts 135°
2026-05-05 08:02 51.61757 6.49350 27779 ft 452 kts 135°
2026-05-05 08:02 51.59667 6.53133 28138 ft 453 kts 135°
2026-05-05 08:02 51.57571 6.56917 28460 ft 454 kts 136°
2026-05-05 08:03 51.55466 6.60714 28751 ft 456 kts 136°
2026-05-05 08:03 51.53353 6.64525 29034 ft 457 kts 136°
2026-05-05 08:03 51.51232 6.68345 29306 ft 459 kts 136°
2026-05-05 08:03 51.49102 6.72172 29584 ft 461 kts 136°
2026-05-05 08:04 51.46956 6.76016 29805 ft 464 kts 136°
2026-05-05 08:04 51.44795 6.79874 30022 ft 466 kts 136°
2026-05-05 08:04 51.42620 6.83746 30267 ft 468 kts 137°
2026-05-05 08:04 51.40313 6.87356 30605 ft 461 kts 145°
2026-05-05 08:05 51.37746 6.90360 30962 ft 453 kts 153°
2026-05-05 08:05 51.35083 6.93036 31363 ft 450 kts 153°
2026-05-05 08:05 51.32445 6.95686 31821 ft 446 kts 153°
2026-05-05 08:05 51.29829 6.98312 32251 ft 443 kts 154°
2026-05-05 08:06 51.27226 7.00924 32660 ft 441 kts 154°
2026-05-05 08:06 51.24634 7.03524 33052 ft 439 kts 154°
2026-05-05 08:06 51.22051 7.06110 33445 ft 437 kts 154°
2026-05-05 08:06 51.19480 7.08679 33828 ft 435 kts 154°
2026-05-05 08:07 51.16918 7.11239 34150 ft 434 kts 154°
2026-05-05 08:07 51.14360 7.13789 34397 ft 434 kts 154°
2026-05-05 08:07 51.11792 7.16344 34530 ft 437 kts 154°
2026-05-05 08:07 51.09211 7.18907 34724 ft 438 kts 154°
2026-05-05 08:08 51.06626 7.21478 34867 ft 438 kts 153°
2026-05-05 08:08 51.04050 7.24040 34907 ft 435 kts 153°
2026-05-05 08:08 50.99796 7.28260 34903 ft 433 kts 154°
2026-05-05 08:09 50.94679 7.33318 34898 ft 433 kts 154°
2026-05-05 08:09 50.89565 7.38359 34897 ft 433 kts 154°
2026-05-05 08:10 50.84452 7.43390 34896 ft 433 kts 154°
2026-05-05 08:10 50.79334 7.48401 34899 ft 433 kts 154°
2026-05-05 08:11 50.74215 7.53404 34886 ft 433 kts 154°
2026-05-05 08:11 50.69117 7.58468 34889 ft 434 kts 153°
2026-05-05 08:12 50.64080 7.63729 34895 ft 435 kts 152°
2026-05-05 08:12 50.59054 7.68997 34897 ft 433 kts 152°
2026-05-05 08:13 50.54027 7.74195 34910 ft 431 kts 153°
2026-05-05 08:13 50.49010 7.79343 34914 ft 430 kts 153°
2026-05-05 08:14 50.44001 7.84479 34909 ft 430 kts 153°
2026-05-05 08:14 50.38997 7.89598 34893 ft 429 kts 153°
2026-05-05 08:15 50.34000 7.94687 34898 ft 428 kts 153°
2026-05-05 08:15 50.29016 7.99749 34903 ft 426 kts 153°
2026-05-05 08:16 50.24043 8.04795 34907 ft 426 kts 153°
2026-05-05 08:16 50.19078 8.09832 34905 ft 425 kts 153°
2026-05-05 08:17 50.14051 8.14637 34905 ft 419 kts 161°
2026-05-05 08:17 50.08615 8.17328 34901 ft 411 kts 171°
2026-05-05 08:18 50.03063 8.19440 34902 ft 411 kts 171°
2026-05-05 08:18 49.97515 8.21568 34884 ft 411 kts 171°
2026-05-05 08:19 49.91965 8.23697 34861 ft 411 kts 171°
2026-05-05 08:19 49.86409 8.25815 34861 ft 411 kts 171°
2026-05-05 08:20 49.80854 8.27925 34867 ft 411 kts 171°
2026-05-05 08:20 49.75302 8.30037 34871 ft 411 kts 171°
2026-05-05 08:21 49.69749 8.32140 34874 ft 411 kts 171°
2026-05-05 08:21 49.64201 8.34243 34869 ft 410 kts 171°
2026-05-05 08:22 49.58653 8.36336 34875 ft 410 kts 171°
2026-05-05 08:22 49.53109 8.38422 34876 ft 410 kts 171°
2026-05-05 08:23 49.47563 8.40504 34872 ft 410 kts 171°
2026-05-05 08:23 49.42020 8.42583 34870 ft 410 kts 171°
2026-05-05 08:24 49.36482 8.44653 34889 ft 409 kts 170°
2026-05-05 08:24 49.30959 8.46715 34889 ft 409 kts 171°
2026-05-05 08:25 49.25419 8.48766 34886 ft 409 kts 171°
2026-05-05 08:25 49.19892 8.50804 34870 ft 409 kts 170°
2026-05-05 08:26 49.14366 8.52849 34874 ft 408 kts 170°
2026-05-05 08:26 49.08847 8.54898 34876 ft 408 kts 170°
2026-05-05 08:27 49.03329 8.56936 34875 ft 408 kts 170°
2026-05-05 08:27 48.97760 8.57718 34875 ft 400 kts 188°
2026-05-05 08:28 48.92327 8.56149 34879 ft 397 kts 194°
2026-05-05 08:28 48.86920 8.54398 34878 ft 397 kts 193°
2026-05-05 08:29 48.81508 8.52660 34880 ft 397 kts 193°
2026-05-05 08:30 48.73434 8.50069 34882 ft 397 kts 193°
2026-05-05 08:30 48.68024 8.48336 34884 ft 397 kts 193°
2026-05-05 08:31 48.62623 8.46598 34885 ft 397 kts 193°
2026-05-05 08:31 48.57224 8.44869 34886 ft 397 kts 193°
2026-05-05 08:32 48.51822 8.43152 34886 ft 397 kts 193°
2026-05-05 08:32 48.46423 8.41434 34886 ft 397 kts 193°
2026-05-05 08:33 48.41025 8.39724 34886 ft 396 kts 193°
2026-05-05 08:33 48.35623 8.38007 34885 ft 396 kts 193°
2026-05-05 08:34 48.30228 8.36298 34888 ft 396 kts 193°
2026-05-05 08:34 48.24835 8.34596 34884 ft 395 kts 193°
2026-05-05 08:35 48.19452 8.32894 34883 ft 395 kts 195°
2026-05-05 08:35 48.14433 8.29659 34876 ft 395 kts 212°
2026-05-05 08:36 48.09831 8.25176 34883 ft 395 kts 211°
2026-05-05 08:36 48.05211 8.20730 34883 ft 395 kts 211°
2026-05-05 08:37 48.00584 8.16294 34880 ft 395 kts 211°
2026-05-05 08:37 47.95956 8.11856 34884 ft 395 kts 211°
2026-05-05 08:38 47.91328 8.07420 34883 ft 396 kts 211°
2026-05-05 08:38 47.86691 8.02989 34878 ft 396 kts 211°
2026-05-05 08:39 47.82053 7.98569 34881 ft 396 kts 211°
2026-05-05 08:39 47.77412 7.94142 34888 ft 396 kts 211°
2026-05-05 08:40 47.72763 7.89723 34879 ft 397 kts 210°
2026-05-05 08:40 47.68108 7.85314 34881 ft 397 kts 210°
2026-05-05 08:41 47.63473 7.80941 34876 ft 398 kts 210°
2026-05-05 08:41 47.61135 7.78737 34192 ft 402 kts 210°
2026-05-05 08:41 47.58737 7.76482 33066 ft 413 kts 210°
2026-05-05 08:41 47.56328 7.74216 32630 ft 406 kts 210°
2026-05-05 08:42 47.53959 7.71979 32129 ft 403 kts 210°
2026-05-05 08:42 47.51606 7.69759 31635 ft 399 kts 210°
2026-05-05 08:42 47.49276 7.67565 31147 ft 395 kts 209°
2026-05-05 08:42 47.46967 7.65401 30669 ft 391 kts 209°
2026-05-05 08:43 47.44674 7.63259 30197 ft 388 kts 209°
2026-05-05 08:43 47.42400 7.61138 29687 ft 385 kts 209°
2026-05-05 08:43 47.40149 7.59037 29221 ft 380 kts 209°
2026-05-05 08:43 47.37930 7.56964 28758 ft 375 kts 209°
2026-05-05 08:44 47.35740 7.54915 28303 ft 370 kts 209°
2026-05-05 08:44 47.33575 7.52892 27860 ft 366 kts 209°
2026-05-05 08:44 47.31435 7.50898 27435 ft 362 kts 209°
2026-05-05 08:44 47.29351 7.48956 27026 ft 358 kts 210°
2026-05-05 08:45 47.27260 7.47014 26608 ft 353 kts 209°
2026-05-05 08:45 47.25186 7.45094 26204 ft 351 kts 209°
2026-05-05 08:45 47.23131 7.43195 25803 ft 348 kts 209°
2026-05-05 08:45 47.21089 7.41308 25400 ft 345 kts 210°
2026-05-05 08:46 47.19064 7.39434 25011 ft 343 kts 210°
2026-05-05 08:46 47.17099 7.37460 24603 ft 342 kts 217°
2026-05-05 08:46 47.15391 7.35017 24184 ft 344 kts 227°
2026-05-05 08:46 47.13905 7.32266 23770 ft 343 kts 229°
2026-05-05 08:47 47.12430 7.29527 23325 ft 341 kts 229°
2026-05-05 08:47 47.10957 7.26807 22876 ft 339 kts 229°
2026-05-05 08:47 47.09493 7.24116 22446 ft 337 kts 229°
2026-05-05 08:47 47.08035 7.21442 22031 ft 335 kts 229°
2026-05-05 08:48 47.06583 7.18780 21621 ft 333 kts 229°
2026-05-05 08:48 47.05142 7.16133 21218 ft 331 kts 230°
2026-05-05 08:48 47.03708 7.13495 20797 ft 330 kts 230°
2026-05-05 08:48 47.02279 7.10874 20378 ft 328 kts 230°
2026-05-05 08:49 47.00853 7.08270 19962 ft 327 kts 230°
2026-05-05 08:49 46.99432 7.05677 19547 ft 326 kts 230°
2026-05-05 08:49 46.98016 7.03091 19133 ft 324 kts 230°
2026-05-05 08:49 46.96605 7.00519 18727 ft 324 kts 230°
2026-05-05 08:50 46.95190 6.97941 18317 ft 325 kts 230°
2026-05-05 08:50 46.93772 6.95356 17873 ft 326 kts 230°
2026-05-05 08:50 46.92325 6.92813 17444 ft 324 kts 224°
2026-05-05 08:50 46.90619 6.90681 17040 ft 322 kts 213°
2026-05-05 08:51 46.88664 6.89107 16640 ft 321 kts 202°
2026-05-05 08:51 46.86601 6.87875 16242 ft 319 kts 202°
2026-05-05 08:51 46.84555 6.86653 15851 ft 317 kts 202°
2026-05-05 08:51 46.82518 6.85432 15460 ft 315 kts 202°
2026-05-05 08:52 46.80497 6.84217 15069 ft 313 kts 202°
2026-05-05 08:52 46.78489 6.83009 14681 ft 311 kts 202°
2026-05-05 08:52 46.76494 6.81810 14297 ft 310 kts 202°
2026-05-05 08:52 46.74507 6.80617 13908 ft 308 kts 203°
2026-05-05 08:53 46.72560 6.79451 13505 ft 306 kts 203°
2026-05-05 08:53 46.70604 6.78280 13110 ft 302 kts 203°
2026-05-05 08:53 46.68670 6.77121 12725 ft 299 kts 203°
2026-05-05 08:53 46.66776 6.75897 12338 ft 296 kts 210°
2026-05-05 08:54 46.65095 6.74188 11961 ft 295 kts 221°
2026-05-05 08:54 46.63668 6.72018 11581 ft 299 kts 227°
2026-05-05 08:54 46.62271 6.69734 11181 ft 305 kts 227°
2026-05-05 08:54 46.60845 6.67418 10761 ft 310 kts 227°
2026-05-05 08:55 46.59397 6.65068 10363 ft 314 kts 227°
2026-05-05 08:55 46.57948 6.62727 10189 ft 307 kts 227°
2026-05-05 08:55 46.56554 6.60469 10058 ft 294 kts 227°
2026-05-05 08:55 46.55219 6.58300 9942 ft 282 kts 227°
2026-05-05 08:56 46.53936 6.56218 9750 ft 273 kts 227°
2026-05-05 08:56 46.52676 6.54181 9386 ft 270 kts 227°
2026-05-05 08:56 46.51420 6.52156 8868 ft 273 kts 227°
2026-05-05 08:56 46.50561 6.50772 8365 ft 283 kts 227°
2026-05-05 08:57 46.49213 6.48598 7715 ft 295 kts 227°
2026-05-05 08:57 46.47871 6.46427 7478 ft 279 kts 227°
2026-05-05 08:57 46.46628 6.44426 7372 ft 258 kts 226°
2026-05-05 08:57 46.45399 6.42552 7042 ft 255 kts 224°
2026-05-05 08:58 46.44159 6.40737 6704 ft 252 kts 223°
2026-05-05 08:58 46.42928 6.38957 6370 ft 248 kts 223°
2026-05-05 08:58 46.41713 6.37202 6014 ft 244 kts 223°
2026-05-05 08:58 46.40525 6.35503 5720 ft 235 kts 222°
2026-05-05 08:59 46.39382 6.33866 5433 ft 226 kts 223°
2026-05-05 08:59 46.38303 6.32277 5127 ft 218 kts 224°
2026-05-05 08:59 46.37266 6.30743 4848 ft 215 kts 223°
2026-05-05 08:59 46.36230 6.29210 4563 ft 212 kts 224°
2026-05-05 09:00 46.35214 6.27707 4289 ft 204 kts 224°
2026-05-05 09:00 46.34249 6.26281 4008 ft 194 kts 224°
2026-05-05 09:00 46.33325 6.24915 3752 ft 186 kts 223°
2026-05-05 09:00 46.32438 6.23605 3535 ft 177 kts 223°
2026-05-05 09:01 46.31582 6.22344 3275 ft 175 kts 224°
2026-05-05 09:01 46.30740 6.21103 3044 ft 170 kts 224°
2026-05-05 09:01 46.29929 6.19907 2806 ft 163 kts 224°
2026-05-05 09:01 46.29146 6.18752 2580 ft 159 kts 225°
2026-05-05 09:02 46.28377 6.17621 2359 ft 157 kts 225°
2026-05-05 09:02 46.27610 6.16493 2147 ft 157 kts 226°
2026-05-05 09:02 46.26845 6.15359 1951 ft 157 kts 226°
2026-05-05 09:02 46.26084 6.14229 1716 ft 156 kts 226°
2026-05-05 09:03 46.25324 6.13113 1497 ft 155 kts 226°
2026-05-05 09:03 46.24587 6.12027 1371 ft 143 kts 224°
2026-05-05 09:03 46.23985 6.11155 1377 ft 98 kts 225°
2026-05-05 09:03 46.23623 6.10628 1379 ft 56 kts 224°
2026-05-05 09:04 46.23383 6.10278 1396 ft 33 kts 225°
2026-05-05 09:04 46.23226 6.10129 1387 ft 22 kts 198°
2026-05-05 09:04 46.23130 6.10088 1386 ft 8 kts 192°
2026-05-05 09:04 46.23101 6.10102 1390 ft 2 kts 133°
2026-05-05 09:05 46.23081 6.10130 1387 ft 11 kts 134°
2026-05-05 09:05 46.23017 6.10217 1386 ft 12 kts 139°
2026-05-05 09:05 46.22961 6.10295 1388 ft 10 kts 128°
2026-05-05 09:05 46.22964 6.10360 1391 ft 6 kts 46°
2026-05-05 09:06 46.23013 6.10431 1390 ft 16 kts 46°
2026-05-05 09:06 46.23035 6.10492 1387 ft 2 kts 137°
2026-05-05 09:06 46.23031 6.10498 1388 ft 3 kts 134°
2026-05-05 09:06 46.23019 6.10516 1389 ft 0 kts 136°
2026-05-05 09:07 46.23015 6.10521 1400 ft 2 kts 136°
2026-05-05 09:07 46.23010 6.10528 1398 ft 0 kts 137°
2026-05-05 09:07 46.23007 6.10531 1399 ft 1 kts 137°
2026-05-05 09:07 46.23007 6.10532 1399 ft 0 kts 137°